Regional Weather Roundup
Issued by NWS

Home | Current Version | Previous Version | Graphics & Text | Print | Product List | Glossary On
Versions: 1 2 3 4 5 6 7 8 9 10 11 12 13 14 15 16 17 18 19 20 21 22 23 24 25 26 27 28 29 30 31 32 33 34 35 36 37 38 39 40 41 42 43 44 45 46 47 48 49 50
000
ASUS43 KLOT 222310
RWRIL

ILLINOIS REGIONAL WEATHER ROUNDUP
NATIONAL WEATHER SERVICE CHICAGO/ROMEOVILLE IL
500 PM CST MON DEC 22 2014

NOTE: "FAIR" INDICATES FEW OR NO CLOUDS BELOW 12,000 FEET WITH NO
SIGNIFICANT WEATHER AND/OR OBSTRUCTIONS TO VISIBILITY.

* THESE STATIONS ARE NOT UNDER NWS QUALITY CONTROL. THEY ALSO MAY NOT
  REPORT WEATHER SUCH AS PRECIPITATION OR FOG.

ILZ001-002-007-009-015-016-024-230000-
NORTHWEST ILLINOIS

CITY           SKY/WX    TMP DP  RH WIND       PRES   REMARKS
MOLINE         CLOUDY    39  37  92 E6        29.56F FOG     WCI  35
STERLING*      CLOUDY    37  34  87 E10       29.60F WCI  30
SAVANNA*       CLOUDY    38  36  94 E10       29.60F FOG     WCI  31
$$

ILZ003-004-008-010-011-017-018-230000-
NORTH CENTRAL ILLINOIS

CITY           SKY/WX    TMP DP  RH WIND       PRES   REMARKS
ROCKFORD       LGT RAIN  38  35  89 E13       29.65F FOG     WCI  30
FREEPORT*      CLOUDY    35  35  99 E10       29.63F FOG     WCI  27
ROCHELLE*      CLOUDY    37  36  99 SE13      29.63F FOG     WCI  28
DE KALB*       LGT RAIN  36  36  98 SE13G22   29.64S WCI  28
PERU*          CLOUDY    41  40  97 SE12      29.62S FOG
$$

ILZ005-006-012>014-019>023-230000-
NORTHEAST ILLINOIS

CITY           SKY/WX    TMP DP  RH WIND       PRES   REMARKS
CHICAGO-OHARE  LGT RAIN  38  36  92 SE13      29.68F FOG     WCI  30
CHICAGO-MIDWAY LGT RAIN  40  38  93 SE12      29.69F FOG
AURORA         LGT RAIN  41  37  86 E13       29.65F FOG
LANSING*       LGT RAIN  40  38  96 SE13      29.70F
JOLIET*        LGT RAIN  39  38  95 SE9G17    29.66S WCI  33
WAUKEGAN       LGT RAIN  37  35  92 E12       29.70F FOG     WCI  29
DUPAGE AIRPORT LGT RAIN  39  37  92 E10       29.65F FOG     WCI  32
KANKAKEE*      LGT RAIN  39  39  99 E13       29.68S WCI  32
WHEELING       LGT RAIN  38  36  92 SE10      29.71F FOG     WCI  31
MORRIS*        LGT RAIN  42  42  99 SE16      29.64F
ROMEOVILLE*    LGT RAIN  40  40 100 SE15      29.66F
NORTHERLY ISL    N/A     37  36  96 E9          N/A  WCI  30
$$

LMZ740>746-230000-
SOUTHERN LAKE MICHIGAN

STATION/POSITION SKY/WX   TEMP    WIND        PRES    VSBY  WAVE
                          AIR SEA DIR/SP/G                  HT/PER
                          (F)     (DEG/KT/KT) (MB)    (MI)  (FT/S)
WAUKEGAN HARBOR            37     130/ 16/ 18   N/A
HARRISON CRIB              38     130/ 17/ 20   N/A
BURNHAM HARBOR             37     110/  9/ 10   N/A
CALUMET HARBOR             39     120/  8/ 12 1004.8F
$$

ILZ025>027-034>036-040-047-049-050-058-095>099-230000-
WEST-CENTRAL ILLINOIS

CITY           SKY/WX    TMP DP  RH WIND       PRES   REMARKS
QUINCY         LGT RAIN  44  43  96 SE7       29.51S FOG
GALESBURG*     CLOUDY    40  40  99 E5        29.55F FOG
MACOMB*        CLOUDY    42  42 100 SE8       29.56F FOG
JACKSONVILLE*  LGT RAIN  47  45  93 SE9       29.55S
PITTSFIELD*    LGT RAIN  46  44  93 SE9       29.53F
$$

ILZ028>032-037-038-041>044-048-051>054-059>061-230000-
CENTRAL ILLINOIS

CITY           SKY/WX    TMP DP  RH WIND       PRES   REMARKS
PONTIAC        LGT RAIN  41  41  99 SE12      29.64S
BLOOMINGTON    LGT RAIN  43  43 100 SE14      29.61F FOG
DECATUR        LGT RAIN  46  45  96 SE15G23   29.60F FOG
PEORIA         CLOUDY    45  42  89 SE7       29.58F FOG
LACON*         CLOUDY    41  39  93 SE10      29.59F FOG
LINCOLN*       LGT RAIN  46  44  95 SE12      29.59F
SPRINGFIELD    LGT RAIN  46  46 100 SE10      29.58F FOG
TAYLORVILLE    LGT RAIN  45  43  93 SE15      29.58F
$$

ILZ033-039-045-046-055>057-062-063-230000-
EAST-CENTRAL ILLINOIS

CITY           SKY/WX    TMP DP  RH WIND       PRES   REMARKS
CHAMPAIGN      LGT RAIN  44  43  96 SE16      29.63S FOG
DANVILLE*      LGT RAIN  42  40  96 SE10      29.65S
RANTOUL*       LGT RAIN  45  43  95 SE15      29.63F
MATTOON        LGT RAIN  46  44  93 SE16      29.62F FOG
PARIS*         DRIZZLE   45  44  97 SE13G18   29.67S
$$

ILZ079-100>102-230000-
SOUTHWEST ILLINOIS

CITY           SKY/WX    TMP DP  RH WIND       PRES   REMARKS
ALTON          LGT RAIN  46  46 100 SE5       29.56F
BELLEVILLE     LGT RAIN  49  49 100 SE8       29.55F FOG
CAHOKIA*       LGT RAIN  50  48  93 SE8       29.55F FOG
SPARTA*        DRIZZLE   49  48  97 SE8       29.57F
$$

ILZ064>066-069>071-074>076-080>082-084>086-088>090-092>094-230000-
SOUTH-CENTRAL ILLINOIS

CITY           SKY/WX    TMP DP  RH WIND       PRES   REMARKS
CARBONDALE     CLOUDY    50  48  93 S8        29.59S
CAIRO*         DRIZZLE   55  53  94 S9        29.60S
EFFINGHAM*     LGT RAIN  47  44  90 E12       29.63F
MARION         LGT RAIN  52  50  93 SE12      29.60F
MT. VERNON     CLOUDY    48  45  87 SE9       29.60F
CENTRALIA*     RAIN      48  46  91 SE10      29.58F
SALEM*         RAIN      49  47  92 SE7G16    29.59F
METROPOLIS*    DRIZZLE   53  53  99 SE6       29.61S
$$

ILZ067-068-072-073-078-083-087-091-230000-
SOUTHEAST ILLINOIS

CITY           SKY/WX    TMP DP  RH WIND       PRES   REMARKS
LAWRENCEVILLE  LGT RAIN  48  46  93 SE14      29.67S
FLORA*         LGT RAIN  47  47  97 SE13      29.62F
FAIRFIELD*     DRIZZLE   48  47  97 SE12      29.61F
HARRISBURG*    CLOUDY    49  49 100 SE10      29.63S
ROBINSON*      LGT RAIN  47  45  95 SE13      29.68S
CARMI*         LGT RAIN  50  49  96 SE15      29.63F
$$

ABBREVIATIONS USED IN REMARKS
   TC - TEMPERATURE IN CELSIUS
  WCI - WIND CHILL INDEX
   HX - HEAT INDEX
  VSB - VISIBILITY
$$




USA.gov is the U.S. government's official web portal to all federal, state and local government web resources and services.